DLH7H EGLL-EDDF

Flight info

Callsign DLH7H
Flight time 1h 16m
Altitude 35000
Route BPK Q295 MATCH DCT REDFA DCT TACHA DCT NOLRU DCT DIXAT DIXAT1A
Aircraft A320/M-SDE2E3FGIJ1LORWXYZ/HB1

Departure

Time 2026-05-06 10:00
Airport London Heathrow Airport (EGLL)

Arrival

Time 2026-05-06 11:16
Airport Frankfurt Main Airport (EDDF)
Time Latitude Longitude Altitude Speed Heading
2026-05-06 09:32 51.46835 -0.44980 89 ft 0 kts
2026-05-06 09:45 51.46833 -0.44980 85 ft 1 kts
2026-05-06 09:45 51.46816 -0.44979 85 ft 3 kts 356°
2026-05-06 09:45 51.46796 -0.44977 85 ft 3 kts 351°
2026-05-06 09:46 51.46776 -0.44970 85 ft 3 kts 339°
2026-05-06 09:46 51.46759 -0.44956 88 ft 3 kts 307°
2026-05-06 09:46 51.46753 -0.44939 86 ft 1 kts 270°
2026-05-06 09:46 51.46753 -0.44938 86 ft 0 kts 270°
2026-05-06 09:50 51.46753 -0.44945 86 ft 5 kts 270°
2026-05-06 09:50 51.46753 -0.45043 85 ft 11 kts 270°
2026-05-06 09:50 51.46753 -0.45170 85 ft 11 kts 270°
2026-05-06 09:50 51.46752 -0.45290 85 ft 15 kts 269°
2026-05-06 09:51 51.46750 -0.45482 85 ft 18 kts 270°
2026-05-06 09:51 51.46749 -0.45696 85 ft 20 kts 269°
2026-05-06 09:51 51.46749 -0.45930 85 ft 22 kts 270°
2026-05-06 09:51 51.46749 -0.46163 85 ft 21 kts 269°
2026-05-06 09:52 51.46748 -0.46405 85 ft 23 kts 270°
2026-05-06 09:52 51.46748 -0.46658 85 ft 23 kts 270°
2026-05-06 09:52 51.46748 -0.46909 85 ft 23 kts 270°
2026-05-06 09:52 51.46747 -0.47172 88 ft 24 kts 270°
2026-05-06 09:53 51.46747 -0.47408 87 ft 21 kts 270°
2026-05-06 09:53 51.46746 -0.47649 85 ft 23 kts 269°
2026-05-06 09:53 51.46745 -0.47862 85 ft 14 kts 270°
2026-05-06 09:53 51.46744 -0.47978 85 ft 5 kts 270°
2026-05-06 09:54 51.46744 -0.48028 85 ft 4 kts 270°
2026-05-06 09:54 51.46744 -0.48067 85 ft 3 kts 270°
2026-05-06 09:54 51.46744 -0.48093 85 ft 0 kts 270°
2026-05-06 09:55 51.46743 -0.48139 85 ft 9 kts 270°
2026-05-06 09:55 51.46743 -0.48227 85 ft 7 kts 270°
2026-05-06 09:56 51.46743 -0.48321 85 ft 13 kts 270°
2026-05-06 09:56 51.46742 -0.48461 85 ft 12 kts 268°
2026-05-06 09:56 51.46739 -0.48583 85 ft 10 kts 268°
2026-05-06 09:56 51.46736 -0.48691 85 ft 9 kts 262°
2026-05-06 09:57 51.46698 -0.48748 87 ft 7 kts 192°
2026-05-06 09:57 51.46655 -0.48750 86 ft 5 kts 179°
2026-05-06 09:57 51.46625 -0.48755 87 ft 4 kts 191°
2026-05-06 09:57 51.46606 -0.48765 89 ft 1 kts 198°
2026-05-06 09:58 51.46580 -0.48778 85 ft 8 kts 198°
2026-05-06 09:58 51.46530 -0.48786 85 ft 6 kts 170°
2026-05-06 09:58 51.46488 -0.48743 86 ft 7 kts 128°
2026-05-06 09:58 51.46477 -0.48687 86 ft 0 kts 89°
2026-05-06 09:59 51.46477 -0.48681 86 ft 5 kts 89°
2026-05-06 09:59 51.46480 -0.48238 87 ft 78 kts 89°
2026-05-06 09:59 51.46484 -0.47026 86 ft 136 kts 89°
2026-05-06 10:00 51.46497 -0.45271 224 ft 173 kts 87°
2026-05-06 10:00 51.46492 -0.43308 980 ft 175 kts 85°
2026-05-06 10:00 51.46629 -0.41388 1718 ft 177 kts 65°
2026-05-06 10:00 51.47348 -0.39680 2057 ft 198 kts 46°
2026-05-06 10:01 51.48304 -0.37907 2524 ft 223 kts 47°
2026-05-06 10:01 51.49361 -0.35916 3120 ft 243 kts 47°
2026-05-06 10:01 51.50459 -0.33819 4055 ft 248 kts 47°
2026-05-06 10:01 51.51574 -0.31673 5058 ft 252 kts 47°
2026-05-06 10:02 51.52505 -0.29222 5766 ft 265 kts 64°
2026-05-06 10:02 51.53128 -0.26414 5961 ft 267 kts 67°
2026-05-06 10:02 51.53798 -0.23655 6002 ft 263 kts 57°
2026-05-06 10:02 51.54911 -0.21376 6006 ft 257 kts 38°
2026-05-06 10:03 51.56387 -0.19831 6007 ft 253 kts 21°
2026-05-06 10:03 51.58004 -0.18711 6030 ft 253 kts 21°
2026-05-06 10:03 51.59653 -0.17724 6036 ft 252 kts 14°
2026-05-06 10:03 51.61338 -0.16957 6032 ft 252 kts 14°
2026-05-06 10:04 51.63028 -0.16181 6034 ft 253 kts 14°
2026-05-06 10:04 51.64718 -0.15404 6036 ft 252 kts 14°
2026-05-06 10:04 51.66358 -0.14293 6370 ft 264 kts 33°
2026-05-06 10:04 51.67603 -0.12118 7366 ft 270 kts 57°
2026-05-06 10:05 51.68439 -0.09370 8283 ft 276 kts 62°
2026-05-06 10:05 51.69246 -0.06513 8718 ft 278 kts 63°
2026-05-06 10:05 51.70035 -0.03647 9310 ft 282 kts 63°
2026-05-06 10:05 51.70832 -0.00736 9886 ft 286 kts 63°
2026-05-06 10:06 51.71650 0.02244 10441 ft 298 kts 64°
2026-05-06 10:06 51.72499 0.05322 10959 ft 312 kts 64°
2026-05-06 10:06 51.73405 0.08586 11514 ft 325 kts 64°
2026-05-06 10:06 51.74346 0.11977 12124 ft 335 kts 64°
2026-05-06 10:07 51.75305 0.15449 12861 ft 341 kts 64°
2026-05-06 10:07 51.76272 0.18970 13615 ft 346 kts 65°
2026-05-06 10:07 51.77258 0.22558 14298 ft 351 kts 64°
2026-05-06 10:07 51.78135 0.26270 14943 ft 357 kts 73°
2026-05-06 10:08 51.78762 0.30169 15591 ft 361 kts 75°
2026-05-06 10:08 51.79390 0.34124 16253 ft 365 kts 75°
2026-05-06 10:08 51.80024 0.38117 16905 ft 369 kts 75°
2026-05-06 10:08 51.80663 0.42128 17543 ft 374 kts 75°
2026-05-06 10:09 51.81316 0.46211 18197 ft 378 kts 75°
2026-05-06 10:09 51.81977 0.50364 18767 ft 382 kts 75°
2026-05-06 10:09 51.82636 0.54545 19337 ft 385 kts 75°
2026-05-06 10:09 51.83296 0.58756 19907 ft 388 kts 76°
2026-05-06 10:10 51.83964 0.63010 20467 ft 391 kts 76°
2026-05-06 10:10 51.84636 0.67302 21047 ft 394 kts 76°
2026-05-06 10:10 51.85308 0.71616 21577 ft 398 kts 76°
2026-05-06 10:10 51.85986 0.75971 22116 ft 401 kts 76°
2026-05-06 10:11 51.86670 0.80364 22648 ft 404 kts 76°
2026-05-06 10:11 51.87357 0.84778 23190 ft 406 kts 77°
2026-05-06 10:11 51.88047 0.89236 23681 ft 410 kts 77°
2026-05-06 10:11 51.88737 0.93722 24120 ft 412 kts 77°
2026-05-06 10:12 51.89430 0.98240 24560 ft 415 kts 77°
2026-05-06 10:12 51.90125 1.02781 24989 ft 417 kts 77°
2026-05-06 10:12 51.90823 1.07353 25400 ft 420 kts 77°
2026-05-06 10:12 51.91517 1.11895 25814 ft 422 kts 77°
2026-05-06 10:13 51.92223 1.16517 26230 ft 425 kts 77°
2026-05-06 10:13 51.92932 1.21177 26646 ft 427 kts 77°
2026-05-06 10:13 51.93643 1.25864 27052 ft 429 kts 77°
2026-05-06 10:13 51.94350 1.30550 27476 ft 431 kts 77°
2026-05-06 10:14 51.95060 1.35291 27870 ft 434 kts 77°
2026-05-06 10:14 51.95767 1.40038 28264 ft 436 kts 77°
2026-05-06 10:14 51.96485 1.44841 28642 ft 438 kts 77°
2026-05-06 10:14 51.97208 1.49682 29029 ft 440 kts 78°
2026-05-06 10:15 51.97929 1.54523 29411 ft 443 kts 78°
2026-05-06 10:15 51.98650 1.59386 29811 ft 445 kts 78°
2026-05-06 10:15 51.99370 1.64277 30133 ft 447 kts 78°
2026-05-06 10:15 52.00057 1.68975 30425 ft 449 kts 78°
2026-05-06 10:16 52.00778 1.73910 30737 ft 450 kts 78°
2026-05-06 10:16 52.01501 1.78862 31039 ft 452 kts 78°
2026-05-06 10:16 52.02226 1.83842 31326 ft 454 kts 78°
2026-05-06 10:16 52.02948 1.88828 31669 ft 454 kts 78°
2026-05-06 10:17 52.03670 1.93821 32076 ft 453 kts 78°
2026-05-06 10:17 52.04387 1.98794 32485 ft 451 kts 78°
2026-05-06 10:17 52.05100 2.03749 32886 ft 451 kts 78°
2026-05-06 10:17 52.05582 2.07099 33150 ft 450 kts 78°
2026-05-06 10:18 52.06290 2.12046 33547 ft 449 kts 78°
2026-05-06 10:18 52.06986 2.16919 33943 ft 448 kts 78°
2026-05-06 10:18 52.07688 2.21853 34248 ft 448 kts 78°
2026-05-06 10:18 52.08384 2.26783 34540 ft 448 kts 78°
2026-05-06 10:19 52.09078 2.31729 34808 ft 448 kts 78°
2026-05-06 10:19 52.09769 2.36658 34939 ft 448 kts 78°
2026-05-06 10:19 52.11138 2.46445 34955 ft 440 kts 78°
2026-05-06 10:20 52.12683 2.56056 34951 ft 439 kts 74°
2026-05-06 10:20 52.14562 2.65505 34954 ft 439 kts 72°
2026-05-06 10:21 52.16466 2.74973 34949 ft 439 kts 73°
2026-05-06 10:21 52.18279 2.84473 34941 ft 439 kts 74°
2026-05-06 10:22 52.20042 2.94012 34934 ft 439 kts 74°
2026-05-06 10:22 52.21813 3.03545 34927 ft 439 kts 74°
2026-05-06 10:23 52.23579 3.13079 34923 ft 439 kts 74°
2026-05-06 10:23 52.24578 3.22838 34914 ft 436 kts 92°
2026-05-06 10:24 52.23594 3.32497 34907 ft 431 kts 111°
2026-05-06 10:24 52.21444 3.41577 34897 ft 430 kts 113°
2026-05-06 10:25 52.19260 3.50696 34895 ft 431 kts 114°
2026-05-06 10:25 52.17086 3.59729 34892 ft 431 kts 114°
2026-05-06 10:26 52.14893 3.68813 34896 ft 431 kts 114°
2026-05-06 10:26 52.12676 3.77958 34888 ft 431 kts 114°
2026-05-06 10:27 52.10483 3.86975 34890 ft 431 kts 114°
2026-05-06 10:27 52.08266 3.96037 34884 ft 431 kts 114°
2026-05-06 10:28 52.06038 4.05088 34884 ft 431 kts 114°
2026-05-06 10:28 52.03801 4.14124 34872 ft 431 kts 114°
2026-05-06 10:29 52.01566 4.23147 34869 ft 431 kts 114°
2026-05-06 10:29 51.99330 4.32153 34872 ft 431 kts 114°
2026-05-06 10:30 51.97090 4.41121 34875 ft 431 kts 114°
2026-05-06 10:30 51.94833 4.50118 34869 ft 431 kts 115°
2026-05-06 10:31 51.92572 4.59097 34869 ft 430 kts 115°
2026-05-06 10:31 51.90303 4.68063 34872 ft 430 kts 115°
2026-05-06 10:32 51.88037 4.77007 34868 ft 430 kts 115°
2026-05-06 10:32 51.85757 4.85945 34861 ft 430 kts 115°
2026-05-06 10:33 51.83472 4.94847 34860 ft 424 kts 114°
2026-05-06 10:33 51.81217 5.03615 34844 ft 422 kts 114°
2026-05-06 10:34 51.78967 5.12355 34846 ft 423 kts 115°
2026-05-06 10:34 51.76705 5.21110 34843 ft 423 kts 114°
2026-05-06 10:35 51.74427 5.29887 34842 ft 424 kts 114°
2026-05-06 10:35 51.72145 5.38634 34840 ft 424 kts 115°
2026-05-06 10:36 51.69832 5.47444 34847 ft 424 kts 115°
2026-05-06 10:36 51.67549 5.56126 34844 ft 424 kts 115°
2026-05-06 10:37 51.65240 5.64866 34844 ft 425 kts 114°
2026-05-06 10:37 51.62919 5.73662 34842 ft 425 kts 115°
2026-05-06 10:38 51.60595 5.82420 34844 ft 426 kts 115°
2026-05-06 10:38 51.58249 5.91180 34840 ft 427 kts 115°
2026-05-06 10:39 51.55888 5.99959 34841 ft 427 kts 115°
2026-05-06 10:39 51.53532 6.08727 34844 ft 427 kts 115°
2026-05-06 10:40 51.51184 6.17421 34844 ft 428 kts 115°
2026-05-06 10:40 51.48850 6.26218 34839 ft 428 kts 114°
2026-05-06 10:41 51.46683 6.35122 34833 ft 429 kts 112°
2026-05-06 10:41 51.44544 6.44042 34814 ft 429 kts 113°
2026-05-06 10:42 51.42364 6.52941 34815 ft 429 kts 113°
2026-05-06 10:42 51.41264 6.57393 34666 ft 430 kts 113°
2026-05-06 10:42 51.40165 6.61823 34436 ft 427 kts 113°
2026-05-06 10:43 51.39070 6.66222 34197 ft 424 kts 113°
2026-05-06 10:43 51.37979 6.70600 33958 ft 422 kts 113°
2026-05-06 10:43 51.36895 6.74937 33711 ft 420 kts 113°
2026-05-06 10:44 51.34739 6.83538 32884 ft 412 kts 113°
2026-05-06 10:44 51.33679 6.87767 32382 ft 408 kts 113°
2026-05-06 10:44 51.32629 6.91961 31895 ft 405 kts 113°
2026-05-06 10:44 51.31585 6.96115 31411 ft 401 kts 113°
2026-05-06 10:45 51.30540 7.00237 30935 ft 398 kts 112°
2026-05-06 10:45 51.29504 7.04314 30471 ft 395 kts 112°
2026-05-06 10:45 51.28451 7.08348 30013 ft 391 kts 116°
2026-05-06 10:45 51.27083 7.12006 29523 ft 387 kts 126°
2026-05-06 10:46 51.25284 7.15235 29089 ft 382 kts 137°
2026-05-06 10:46 51.23204 7.17795 28662 ft 377 kts 147°
2026-05-06 10:46 51.20933 7.19729 28255 ft 372 kts 153°
2026-05-06 10:46 51.18598 7.21574 27844 ft 367 kts 153°
2026-05-06 10:47 51.16324 7.23364 27419 ft 362 kts 153°
2026-05-06 10:47 51.14109 7.25105 27018 ft 359 kts 153°
2026-05-06 10:47 51.11863 7.26875 26618 ft 355 kts 153°
2026-05-06 10:47 51.09722 7.28592 26097 ft 347 kts 155°
2026-05-06 10:48 51.07591 7.30348 25764 ft 342 kts 154°
2026-05-06 10:48 51.05472 7.32113 25333 ft 341 kts 154°
2026-05-06 10:48 51.03394 7.33842 24920 ft 339 kts 154°
2026-05-06 10:48 51.01270 7.35602 24783 ft 348 kts 154°
2026-05-06 10:49 50.99092 7.37399 24804 ft 352 kts 154°
2026-05-06 10:49 50.96948 7.39161 24805 ft 353 kts 154°
2026-05-06 10:49 50.94744 7.40971 24808 ft 354 kts 154°
2026-05-06 10:49 50.92540 7.42777 24812 ft 354 kts 154°
2026-05-06 10:50 50.90370 7.44550 24808 ft 354 kts 154°
2026-05-06 10:50 50.88182 7.46342 24803 ft 354 kts 154°
2026-05-06 10:50 50.85989 7.48140 24805 ft 354 kts 154°
2026-05-06 10:50 50.83817 7.49922 24807 ft 353 kts 155°
2026-05-06 10:51 50.81626 7.51715 24807 ft 353 kts 155°
2026-05-06 10:51 50.79439 7.53506 24804 ft 353 kts 155°
2026-05-06 10:51 50.77245 7.55298 24800 ft 353 kts 155°
2026-05-06 10:51 50.75097 7.57042 24806 ft 353 kts 155°
2026-05-06 10:52 50.72916 7.58808 24804 ft 353 kts 155°
2026-05-06 10:52 50.70710 7.60595 24798 ft 352 kts 155°
2026-05-06 10:52 50.68524 7.62370 24796 ft 352 kts 155°
2026-05-06 10:52 50.66376 7.64113 24792 ft 352 kts 155°
2026-05-06 10:53 50.64194 7.65881 24793 ft 352 kts 155°
2026-05-06 10:53 50.61990 7.67662 24794 ft 352 kts 155°
2026-05-06 10:53 50.59819 7.69412 24786 ft 351 kts 155°
2026-05-06 10:53 50.57665 7.71148 24790 ft 351 kts 155°
2026-05-06 10:54 50.55446 7.72935 24793 ft 351 kts 155°
2026-05-06 10:54 50.53316 7.74648 24790 ft 351 kts 155°
2026-05-06 10:54 50.51137 7.76397 24788 ft 351 kts 155°
2026-05-06 10:54 50.48962 7.78141 24790 ft 351 kts 155°
2026-05-06 10:55 50.46794 7.79877 24787 ft 351 kts 155°
2026-05-06 10:55 50.44610 7.81629 24788 ft 351 kts 155°
2026-05-06 10:55 50.42532 7.83713 24780 ft 354 kts 144°
2026-05-06 10:55 50.40635 7.86079 24781 ft 354 kts 144°
2026-05-06 10:56 50.38679 7.88506 24778 ft 354 kts 144°
2026-05-06 10:56 50.36766 7.90879 24780 ft 354 kts 144°
2026-05-06 10:56 50.34817 7.93297 24777 ft 354 kts 144°
2026-05-06 10:56 50.32887 7.95687 24778 ft 354 kts 144°
2026-05-06 10:57 50.30977 7.98047 24778 ft 354 kts 144°
2026-05-06 10:57 50.29044 8.00436 24780 ft 354 kts 144°
2026-05-06 10:57 50.27101 8.02843 24776 ft 354 kts 143°
2026-05-06 10:57 50.25409 8.05663 24780 ft 358 kts 130°
2026-05-06 10:58 50.23915 8.08730 24784 ft 357 kts 130°
2026-05-06 10:58 50.22396 8.11826 24787 ft 358 kts 130°
2026-05-06 10:58 50.20873 8.14916 24788 ft 357 kts 131°
2026-05-06 10:58 50.19357 8.17983 24793 ft 357 kts 131°
2026-05-06 10:59 50.17838 8.21050 24795 ft 357 kts 131°
2026-05-06 10:59 50.16319 8.24120 24798 ft 357 kts 131°
2026-05-06 10:59 50.14795 8.27192 24533 ft 360 kts 131°
2026-05-06 10:59 50.13251 8.30294 23450 ft 366 kts 130°
2026-05-06 11:00 50.11700 8.33467 22378 ft 367 kts 126°
2026-05-06 11:00 50.10692 8.37098 21517 ft 368 kts 103°
2026-05-06 11:00 50.10641 8.41068 20692 ft 369 kts 81°
2026-05-06 11:00 50.11415 8.44875 19842 ft 369 kts 72°
2026-05-06 11:01 50.12307 8.48606 19023 ft 366 kts 72°
2026-05-06 11:01 50.13199 8.52296 18288 ft 362 kts 72°
2026-05-06 11:01 50.14085 8.55943 17477 ft 358 kts 71°
2026-05-06 11:01 50.14958 8.59563 16681 ft 354 kts 71°
2026-05-06 11:02 50.15815 8.63142 15911 ft 350 kts 71°
2026-05-06 11:02 50.16655 8.66674 15184 ft 345 kts 71°
2026-05-06 11:02 50.17484 8.70166 14457 ft 341 kts 71°
2026-05-06 11:02 50.18299 8.73620 13769 ft 338 kts 71°
2026-05-06 11:03 50.19106 8.77035 13023 ft 333 kts 71°
2026-05-06 11:03 50.19899 8.80400 12289 ft 329 kts 71°
2026-05-06 11:03 50.20682 8.83739 11569 ft 325 kts 71°
2026-05-06 11:03 50.21196 8.85925 11125 ft 322 kts 71°
2026-05-06 11:04 50.21967 8.89190 10482 ft 319 kts 71°
2026-05-06 11:04 50.22724 8.92413 9842 ft 314 kts 71°
2026-05-06 11:04 50.23268 8.95684 9016 ft 311 kts 89°
2026-05-06 11:04 50.23177 8.99038 8162 ft 308 kts 94°
2026-05-06 11:05 50.23074 9.02374 7329 ft 307 kts 94°
2026-05-06 11:05 50.22976 9.05695 6517 ft 306 kts 94°
2026-05-06 11:05 50.22879 9.09006 5688 ft 304 kts 94°
2026-05-06 11:05 50.22780 9.12291 4853 ft 302 kts 94°
2026-05-06 11:06 50.22657 9.15538 4014 ft 297 kts 98°
2026-05-06 11:06 50.21937 9.18449 3667 ft 281 kts 128°
2026-05-06 11:06 50.20549 9.20371 3748 ft 256 kts 152°
2026-05-06 11:06 50.18941 9.21234 3768 ft 237 kts 173°
2026-05-06 11:07 50.17365 9.21147 3773 ft 220 kts 194°
2026-05-06 11:07 50.16021 9.20131 3776 ft 215 kts 220°
2026-05-06 11:07 50.15128 9.18330 3777 ft 216 kts 246°
2026-05-06 11:07 50.14810 9.16026 3780 ft 217 kts 263°
2026-05-06 11:08 50.14653 9.13698 3778 ft 218 kts 263°
2026-05-06 11:08 50.14494 9.11324 3774 ft 218 kts 263°
2026-05-06 11:08 50.14336 9.08973 3777 ft 218 kts 263°
2026-05-06 11:08 50.14176 9.06628 3775 ft 218 kts 263°
2026-05-06 11:09 50.14014 9.04280 3771 ft 218 kts 263°
2026-05-06 11:09 50.13853 9.01962 3774 ft 218 kts 263°
2026-05-06 11:09 50.13689 8.99636 3776 ft 207 kts 263°
2026-05-06 11:09 50.13539 8.97473 3785 ft 193 kts 262°
2026-05-06 11:10 50.13398 8.95456 3787 ft 190 kts 262°
2026-05-06 11:10 50.13255 8.93417 3779 ft 191 kts 262°
2026-05-06 11:10 50.13110 8.91370 3780 ft 190 kts 262°
2026-05-06 11:10 50.12927 8.89323 3777 ft 190 kts 256°
2026-05-06 11:11 50.12585 8.87347 3778 ft 189 kts 251°
2026-05-06 11:11 50.12161 8.85400 3781 ft 189 kts 249°
2026-05-06 11:11 50.11717 8.83476 3780 ft 187 kts 249°
2026-05-06 11:11 50.11280 8.81611 3779 ft 183 kts 248°
2026-05-06 11:12 50.10840 8.79746 3742 ft 183 kts 249°
2026-05-06 11:12 50.10406 8.77904 3551 ft 178 kts 249°
2026-05-06 11:12 50.09989 8.76139 3343 ft 171 kts 248°
2026-05-06 11:12 50.09585 8.74429 3127 ft 166 kts 249°
2026-05-06 11:13 50.09191 8.72765 2899 ft 161 kts 249°
2026-05-06 11:13 50.08803 8.71128 2710 ft 161 kts 249°
2026-05-06 11:13 50.08408 8.69459 2482 ft 167 kts 249°
2026-05-06 11:13 50.08009 8.67777 2273 ft 164 kts 249°
2026-05-06 11:14 50.07618 8.66128 2035 ft 160 kts 249°
2026-05-06 11:14 50.07237 8.64525 1836 ft 157 kts 249°
2026-05-06 11:14 50.06864 8.62955 1647 ft 149 kts 249°
2026-05-06 11:14 50.06518 8.61498 1435 ft 141 kts 249°
2026-05-06 11:15 50.06183 8.60092 1264 ft 136 kts 248°
2026-05-06 11:15 50.05858 8.58727 1097 ft 133 kts 248°
2026-05-06 11:15 50.05540 8.57393 933 ft 131 kts 248°
2026-05-06 11:15 50.05222 8.56072 746 ft 129 kts 248°
2026-05-06 11:16 50.04919 8.54767 556 ft 128 kts 248°
2026-05-06 11:16 50.04610 8.53475 388 ft 127 kts 248°
2026-05-06 11:16 50.04331 8.52323 348 ft 93 kts 250°
2026-05-06 11:16 50.04183 8.51712 353 ft 29 kts 244°
2026-05-06 11:17 50.04074 8.51498 349 ft 15 kts 221°
2026-05-06 11:17 50.03989 8.51389 348 ft 16 kts 218°
2026-05-06 11:17 50.03898 8.51270 351 ft 18 kts 220°
2026-05-06 11:17 50.03797 8.51154 353 ft 19 kts 204°
2026-05-06 11:18 50.03686 8.51197 353 ft 18 kts 135°
2026-05-06 11:18 50.03626 8.51366 350 ft 18 kts 116°
2026-05-06 11:18 50.03574 8.51532 353 ft 16 kts 116°
2026-05-06 11:18 50.03526 8.51685 351 ft 15 kts 116°
2026-05-06 11:19 50.03513 8.51835 349 ft 14 kts 83°
2026-05-06 11:19 50.03525 8.51975 346 ft 13 kts 83°
2026-05-06 11:19 50.03535 8.52106 353 ft 13 kts 83°
2026-05-06 11:19 50.03542 8.52245 346 ft 12 kts 98°
2026-05-06 11:20 50.03482 8.52307 348 ft 12 kts 180°
2026-05-06 11:20 50.03403 8.52337 351 ft 13 kts 120°
2026-05-06 11:20 50.03398 8.52469 346 ft 12 kts 90°
2026-05-06 11:20 50.03402 8.52591 346 ft 11 kts 81°
2026-05-06 11:21 50.03426 8.52699 351 ft 12 kts 68°
2026-05-06 11:21 50.03465 8.52847 353 ft 15 kts 68°
2026-05-06 11:21 50.03502 8.52990 349 ft 14 kts 69°
2026-05-06 11:21 50.03534 8.53124 347 ft 13 kts 69°
2026-05-06 11:22 50.03564 8.53249 353 ft 12 kts 69°
2026-05-06 11:22 50.03592 8.53366 354 ft 11 kts 70°
2026-05-06 11:22 50.03638 8.53550 354 ft 31 kts 69°
2026-05-06 11:22 50.03717 8.53876 350 ft 33 kts 69°
2026-05-06 11:23 50.03782 8.54149 351 ft 24 kts 69°
2026-05-06 11:23 50.03860 8.54370 353 ft 22 kts 59°
2026-05-06 11:23 50.03915 8.54583 349 ft 21 kts 69°
2026-05-06 11:23 50.03964 8.54786 351 ft 19 kts 70°
2026-05-06 11:24 50.04008 8.54970 346 ft 17 kts 69°
2026-05-06 11:24 50.04048 8.55140 348 ft 16 kts 70°
2026-05-06 11:24 50.04086 8.55299 354 ft 15 kts 70°
2026-05-06 11:24 50.04121 8.55447 350 ft 14 kts 70°
2026-05-06 11:25 50.04154 8.55584 347 ft 13 kts 69°
2026-05-06 11:25 50.04185 8.55714 353 ft 12 kts 69°
2026-05-06 11:25 50.04214 8.55834 352 ft 11 kts 69°
2026-05-06 11:25 50.04240 8.55945 348 ft 11 kts 69°
2026-05-06 11:26 50.04268 8.56061 348 ft 15 kts 69°
2026-05-06 11:26 50.04304 8.56209 352 ft 14 kts 70°
2026-05-06 11:26 50.04336 8.56348 350 ft 13 kts 69°
2026-05-06 11:26 50.04369 8.56482 346 ft 15 kts 70°
2026-05-06 11:27 50.04404 8.56631 351 ft 14 kts 70°
2026-05-06 11:27 50.04437 8.56767 348 ft 13 kts 69°
2026-05-06 11:27 50.04491 8.56867 351 ft 12 kts 21°
2026-05-06 11:27 50.04568 8.56899 349 ft 11 kts 14°
2026-05-06 11:28 50.04627 8.56923 346 ft 6 kts 14°
2026-05-06 11:28 50.04694 8.56964 350 ft 9 kts 24°
2026-05-06 11:28 50.04737 8.56946 349 ft 5 kts 289°
2026-05-06 11:28 50.04748 8.56899 352 ft 4 kts 292°
2026-05-06 11:29 50.04750 8.56892 350 ft 0 kts 292°